Date,TemperatureHighF,TemperatureAvgF,TemperatureLowF,DewpointHighF,DewpointAvgF,DewpointLowF,HumidityHigh,HumidityAvg,HumidityLow,PressureMaxIn,PressureMinIn,WindSpeedMaxMPH,WindSpeedAvgMPH,GustSpeedMaxMPH,PrecipitationSumIn
2013-1-1,45.2,40.0,35.2,43.6,35.6,29.1,94,84,77,30.32,30.04,6,1,10,0.01
2013-1-2,40.7,33.3,25.5,30.5,28.1,23.8,94,81,64,30.38,30.28,4,0,6,0.00
2013-1-3,49.1,37.0,25.0,33.1,28.9,23.3,96,74,48,30.50,30.35,7,1,9,0.01
2013-1-4,49.5,43.4,38.2,35.0,31.6,29.9,78,64,50,30.55,30.37,3,0,5,0.00
2013-1-5,54.1,42.4,33.6,39.8,36.6,31.4,95,80,58,30.37,30.21,8,1,9,0.00
2013-1-6,55.2,39.6,29.3,32.7,29.5,25.9,96,71,35,30.43,30.30,6,1,8,0.00
2013-1-7,56.1,38.3,23.5,35.9,30.1,22.0,96,75,44,30.36,30.11,6,0,10,0.00
2013-1-8,49.0,47.2,44.7,47.1,41.9,33.7,97,83,63,30.13,29.98,5,0,8,2.16
2013-1-9,56.4,53.0,47.7,55.0,51.9,46.6,97,96,93,30.15,29.92,13,2,19,1.60
2013-1-10,59.8,54.9,48.9,55.8,50.0,44.8,97,84,66,30.00,29.90,8,2,13,0.06
2013-1-11,71.1,60.0,45.3,61.8,50.4,43.0,93,72,48,29.94,29.75,10,3,16,0.00
2013-1-12,65.9,52.3,35.5,64.0,48.4,29.4,97,86,72,29.97,29.67,11,2,14,0.10
2013-1-13,41.9,35.7,30.0,29.9,24.6,20.4,80,65,50,30.32,29.95,11,3,13,0.00
2013-1-14,44.8,35.4,27.8,26.9,22.2,18.3,68,59,43,30.38,30.24,9,2,11,0.00
2013-1-15,38.0,34.3,28.9,30.6,26.0,21.4,93,72,64,30.28,30.18,7,2,9,0.06
2013-1-16,50.0,34.8,21.3,29.9,22.4,17.9,87,64,35,30.33,30.18,4,0,7,0.00
2013-1-17,59.4,44.6,28.3,37.1,32.1,24.7,90,65,38,30.52,30.26,10,1,10,0.00
2013-1-18,62.8,47.0,27.4,37.4,33.6,25.9,97,64,35,30.53,30.27,8,1,10,0.00
2013-1-19,67.3,50.3,37.2,46.1,40.9,32.8,90,72,43,30.27,30.13,7,1,12,0.00
2013-1-20,69.7,51.1,34.6,48.2,42.1,33.6,97,75,40,30.22,30.07,7,0,7,0.00
2013-1-21,55.9,45.7,36.1,41.7,31.8,25.7,95,60,42,30.32,30.12,10,2,13,0.00
2013-1-22,65.9,49.8,33.8,47.5,38.6,27.0,84,66,49,30.33,30.17,6,1,8,0.00
2013-1-23,75.4,60.7,44.6,56.6,51.8,42.9,96,74,50,30.26,30.10,8,2,13,0.00
2013-1-24,77.9,63.6,49.4,60.2,53.5,45.6,97,72,53,30.17,30.00,5,1,8,0.00
2013-1-25,52.1,47.9,43.9,49.7,43.2,38.3,96,84,71,30.22,30.02,7,1,9,0.00
2013-1-26,55.0,48.8,44.2,48.6,45.1,38.9,96,87,75,30.24,30.10,5,1,7,0.00
2013-1-27,74.3,62.1,48.8,63.6,56.5,47.7,98,83,61,30.10,29.90,11,3,18,0.00
2013-1-28,77.5,71.5,67.0,66.4,64.3,63.2,89,79,63,29.98,29.81,15,4,22,0.00
2013-1-29,79.1,67.0,52.9,66.2,59.8,33.4,93,78,46,29.81,29.41,15,4,24,0.45
2013-1-30,54.3,46.1,34.7,38.2,29.5,22.4,78,54,32,30.15,29.65,10,1,18,0.00
2013-1-31,69.9,47.3,29.0,32.6,27.7,23.7,87,54,18,30.35,30.08,10,2,15,0.00
2013-2-1,60.1,43.3,28.7,37.9,27.4,17.6,77,55,36,30.42,30.17,5,1,10,0.00
2013-2-2,66.8,54.0,39.9,45.9,38.8,33.7,83,59,30,30.33,30.15,7,1,10,0.00
2013-2-3,71.2,52.8,32.8,41.8,33.0,28.4,94,54,22,30.33,29.98,6,1,8,0.00
2013-2-4,72.9,62.2,53.9,57.3,49.4,29.9,95,65,34,29.98,29.77,8,2,13,0.00
2013-2-5,66.1,59.6,54.3,59.7,57.0,52.9,97,91,79,30.01,29.86,5,1,7,0.00
2013-2-6,76.5,63.5,53.7,63.2,57.2,52.6,97,82,47,30.01,29.83,9,2,11,0.01
2013-2-7,80.7,64.6,53.6,59.6,54.2,44.0,93,72,30,30.10,29.78,9,3,15,0.00
2013-2-8,65.2,52.7,43.4,44.4,34.4,21.9,76,54,21,30.26,30.10,11,2,11,0.00
2013-2-9,57.9,50.6,45.1,56.8,45.5,35.9,96,83,66,30.14,29.74,6,2,16,0.00
2013-2-10,69.7,57.7,42.1,62.9,39.6,25.1,97,58,19,30.02,29.64,6,1,15,0.94
2013-2-11,56.2,50.7,42.0,40.0,33.8,28.8,81,53,39,30.17,30.00,6,0,12,0.00
2013-2-12,48.5,46.4,40.9,45.6,43.2,37.3,95,89,74,30.05,29.86,4,1,7,0.29
2013-2-13,59.3,46.3,38.8,39.7,36.1,33.3,88,70,40,30.17,30.02,4,1,9,0.00
2013-2-14,69.9,49.1,33.3,42.1,36.2,32.0,97,67,26,30.11,29.99,6,0,8,0.00
2013-2-15,51.8,46.0,32.0,42.5,29.1,17.9,78,53,27,30.40,30.10,10,3,18,0.00
2013-2-16,57.6,42.2,25.1,31.4,26.8,21.6,88,57,32,30.44,30.18,5,1,8,0.00
2013-2-17,71.7,55.5,36.3,46.5,34.6,29.6,80,50,23,30.18,29.90,12,3,18,0.00
2013-2-18,79.4,62.0,50.0,56.8,44.6,31.7,80,56,28,30.12,29.74,16,4,21,0.00
2013-2-19,61.3,51.1,35.4,33.9,27.8,22.7,78,43,23,30.34,30.11,8,1,9,0.00
2013-2-20,52.6,44.3,40.6,41.1,37.1,30.7,85,76,43,30.21,29.79,11,3,16,0.14
2013-2-21,68.5,51.9,41.5,49.1,39.5,30.9,93,67,25,29.94,29.60,10,2,17,0.15
2013-2-22,48.3,38.7,30.5,36.2,27.1,21.7,80,64,43,30.17,29.93,6,2,10,0.00
2013-2-23,55.5,40.8,28.7,31.6,28.1,24.1,84,62,37,30.12,29.94,6,1,9,0.00
2013-2-24,70.7,52.2,31.2,45.5,37.3,28.1,91,60,35,29.94,29.59,10,2,16,0.00
2013-2-25,60.9,51.5,39.7,50.0,39.8,31.0,81,66,39,29.70,29.48,7,2,16,0.01
2013-2-26,60.2,46.5,38.9,35.7,33.3,31.8,81,62,37,29.94,29.71,10,1,11,0.00
2013-2-27,58.3,45.1,35.2,33.1,28.6,20.4,85,57,25,30.28,29.92,10,1,11,0.00
2013-2-28,59.4,46.3,33.7,30.3,27.0,22.2,78,50,27,30.34,30.21,9,2,12,0.00
2013-3-1,54.2,42.6,29.3,33.7,29.0,24.6,85,60,40,30.36,30.24,6,2,13,0.00
2013-3-2,55.7,41.4,30.4,29.6,25.7,21.4,77,56,30,30.49,30.27,8,2,12,0.00
2013-3-3,72.8,54.8,33.2,42.4,32.0,25.4,78,46,24,30.27,29.81,17,4,18,0.00
2013-3-4,88.8,69.3,55.6,50.0,42.3,31.4,65,42,13,29.82,29.58,17,5,18,0.00
2013-3-5,58.2,50.2,39.8,44.0,26.2,17.0,68,42,21,30.41,29.82,16,4,20,0.00
2013-3-6,63.2,47.5,31.1,26.2,22.1,15.2,73,41,16,30.51,30.24,7,1,7,0.00
2013-3-7,72.6,56.0,36.4,37.3,29.0,24.7,67,39,17,30.26,30.09,10,2,14,0.00
2013-3-8,63.0,58.4,53.6,56.5,50.5,37.9,89,75,46,30.18,29.98,10,2,13,0.00
2013-3-9,69.7,64.1,58.0,64.9,59.5,55.1,96,85,76,29.99,29.65,14,4,18,1.07
2013-3-10,58.2,50.8,35.8,57.1,39.9,30.3,97,68,48,30.12,29.73,12,1,12,0.05
2013-3-11,60.2,44.7,30.8,32.7,27.7,20.1,93,57,22,30.17,30.03,7,1,10,0.00
2013-3-12,67.7,52.1,34.0,33.7,29.7,24.1,82,46,23,30.33,30.06,7,1,12,0.00
2013-3-13,70.9,54.7,36.5,39.1,36.0,32.3,92,54,25,30.47,30.32,6,1,9,0.00
2013-3-14,78.8,61.6,48.6,47.0,40.3,32.9,64,47,31,30.36,30.17,10,2,15,0.00
2013-3-15,82.6,68.8,55.3,54.9,48.5,42.9,84,52,26,30.17,29.88,13,4,20,0.00
2013-3-16,82.2,70.8,58.9,60.1,54.5,47.7,79,57,45,29.88,29.67,14,6,18,0.00
2013-3-17,73.8,66.8,55.9,60.9,54.2,48.3,84,65,45,29.80,29.67,15,2,19,0.00
2013-3-18,69.6,61.6,54.6,60.9,47.7,38.2,91,62,43,30.02,29.63,12,3,14,0.00
2013-3-19,68.7,58.1,48.1,43.0,37.5,32.6,71,47,34,30.15,29.97,9,2,12,0.00
2013-3-20,67.2,56.4,45.7,41.2,34.6,26.8,72,46,23,30.33,30.05,7,1,13,0.00
2013-3-21,70.6,60.2,51.5,57.9,42.1,29.4,76,52,39,30.05,29.56,13,3,20,0.00
2013-3-22,66.7,53.1,46.6,60.5,48.2,42.1,91,84,66,29.88,29.56,10,2,16,0.00
2013-3-23,53.0,49.2,46.2,49.2,46.3,43.3,95,90,86,29.89,29.69,5,1,8,0.16
2013-3-24,53.8,45.7,37.6,47.3,29.9,20.8,94,57,34,30.22,29.86,10,2,13,0.00
2013-3-25,55.1,43.7,28.0,26.3,21.0,16.3,76,43,22,30.44,30.22,12,2,16,0.00
2013-3-26,59.2,43.8,27.7,27.5,23.4,20.6,83,48,25,30.55,30.33,4,0,8,0.00
2013-3-27,70.8,56.4,39.5,43.8,33.6,24.1,58,43,29,30.34,30.09,18,3,18,0.00
2013-3-28,71.4,62.5,50.5,57.4,51.8,43.6,84,68,58,30.23,30.08,11,3,14,0.00
2013-3-29,78.1,68.3,60.8,59.1,57.3,55.6,84,69,50,30.19,30.01,11,4,15,0.00
2013-3-30,77.7,67.2,55.5,65.0,59.9,54.1,96,79,61,30.11,29.88,8,2,14,0.90
2013-3-31,75.3,66.0,55.6,62.9,57.2,50.2,94,75,45,29.99,29.79,8,1,14,0.01
2013-4-1,81.1,65.6,48.0,54.9,50.0,46.2,97,63,31,30.08,29.93,7,0,9,0.00
2013-4-2,68.8,64.5,52.6,62.5,57.1,43.9,88,77,59,30.03,29.90,10,2,16,0.02
2013-4-3,54.6,47.9,42.9,48.8,44.7,41.0,95,89,70,30.19,29.95,8,2,16,0.71
2013-4-4,51.2,45.8,41.9,42.8,41.1,39.6,95,84,70,30.24,30.15,9,1,9,0.02
2013-4-5,70.0,54.4,36.5,49.6,43.6,35.5,97,71,41,30.28,30.05,6,1,9,0.00
2013-4-6,76.5,65.9,57.0,58.8,52.7,45.4,77,63,48,30.04,29.83,13,4,18,0.00
2013-4-7,73.6,67.5,61.8,62.5,59.9,56.5,84,77,67,29.91,29.73,10,4,18,0.00
2013-4-8,76.3,71.3,66.2,65.6,62.8,59.0,82,75,68,29.76,29.65,14,5,19,0.00
2013-4-9,80.9,74.7,68.7,67.9,65.2,62.8,86,73,61,29.70,29.60,17,5,19,0.00
2013-4-10,74.4,48.5,39.7,67.7,43.7,34.9,93,84,63,30.02,29.68,11,2,13,0.15
2013-4-11,62.0,49.1,40.1,41.5,35.1,29.4,83,60,38,30.02,29.84,7,1,11,0.00
2013-4-12,78.1,59.5,40.3,48.9,43.8,38.5,95,61,27,30.03,29.88,4,0,7,0.00
2013-4-13,78.7,67.2,50.5,52.3,48.0,44.0,85,52,34,30.01,29.78,10,2,13,0.00
2013-4-14,83.2,70.7,57.9,66.1,58.5,49.6,83,66,52,29.78,29.53,13,3,17,0.00
2013-4-15,88.7,77.7,68.8,68.7,66.6,65.0,90,70,48,29.74,29.60,14,4,19,0.00
2013-4-16,88.3,78.8,71.9,69.7,66.7,63.5,82,68,49,29.89,29.74,11,4,17,0.00
2013-4-17,86.4,78.4,72.7,70.7,68.6,67.1,92,73,55,29.87,29.60,17,5,20,0.00
2013-4-18,77.3,55.2,45.6,71.0,46.0,34.0,93,72,49,30.18,29.53,15,3,18,0.94
2013-4-19,64.1,50.7,36.4,38.9,32.4,26.1,85,54,24,30.32,30.16,10,1,10,0.00
2013-4-20,72.3,58.8,41.5,38.8,34.7,30.3,80,44,23,30.22,30.03,10,2,13,0.00
2013-4-21,72.4,61.0,49.5,51.8,46.5,36.2,79,60,44,30.22,30.07,9,1,11,0.00
2013-4-22,79.6,67.6,53.9,59.2,53.9,46.5,81,63,47,30.12,29.84,11,3,19,0.00
2013-4-23,69.3,54.3,40.7,61.5,49.1,37.7,90,83,68,30.23,29.79,9,2,13,0.05
2013-4-24,60.2,48.4,38.5,38.7,35.8,31.3,89,64,40,30.36,30.22,8,2,13,0.02
2013-4-25,74.3,62.7,48.5,45.7,39.9,33.5,66,44,28,30.36,30.15,5,1,10,0.00
2013-4-26,77.2,68.0,60.7,66.8,55.9,44.2,82,66,47,30.18,29.97,9,2,15,0.01
2013-4-27,72.6,67.5,56.6,66.3,59.5,54.1,92,76,58,30.14,29.98,5,1,9,0.00
2013-4-28,82.8,67.5,51.2,65.5,59.1,49.8,96,76,53,30.05,29.85,6,1,8,0.00
2013-4-29,87.8,75.5,60.3,67.4,61.1,54.8,95,64,34,29.90,29.77,10,2,15,0.00
2013-4-30,82.7,72.9,59.6,65.4,61.7,56.5,92,69,52,29.83,29.73,7,2,13,0.00
2013-5-1,82.5,73.5,65.6,68.3,64.5,62.0,90,74,54,29.95,29.77,6,2,11,0.00
2013-5-2,69.3,51.8,43.7,62.2,45.1,36.0,91,78,68,30.36,29.95,11,3,15,0.00
2013-5-3,67.0,52.7,37.1,37.8,32.6,26.8,83,51,23,30.35,30.05,11,2,16,0.00
2013-5-4,74.4,58.2,38.9,47.1,36.5,22.6,94,52,17,30.05,29.91,8,1,12,0.00
2013-5-5,67.7,57.9,47.5,48.1,43.3,38.6,80,59,46,30.18,30.05,7,2,12,0.00
2013-5-6,77.5,63.6,48.2,56.0,51.4,45.9,94,67,43,30.15,30.00,9,1,9,0.00
2013-5-7,85.9,72.8,54.5,57.8,54.1,50.8,91,56,31,30.08,29.92,7,1,10,0.00
2013-5-8,86.0,76.0,64.3,59.0,55.7,50.2,73,51,30,29.98,29.84,12,2,15,0.00
2013-5-9,77.3,69.7,65.8,66.8,63.4,56.8,94,81,52,29.97,29.84,9,2,10,0.27
2013-5-10,82.3,72.0,64.6,66.3,62.9,57.9,97,76,49,30.06,29.87,6,1,11,0.01
2013-5-11,80.5,70.9,60.1,58.6,53.2,44.9,86,57,30,30.18,30.04,9,1,15,0.00
2013-5-12,80.0,68.0,55.2,55.5,41.6,31.9,71,42,19,30.28,30.14,4,1,10,0.00
2013-5-13,88.4,73.7,57.4,53.3,47.9,41.5,61,42,27,30.24,30.09,9,2,12,0.00
2013-5-14,87.8,76.7,62.2,61.7,56.6,52.0,77,52,31,30.15,29.96,12,2,14,0.00
2013-5-15,77.8,72.4,62.1,69.0,65.9,60.8,96,81,61,30.03,29.70,12,4,23,1.34
2013-5-16,83.1,71.4,62.2,71.9,66.4,60.8,96,85,67,29.83,29.73,8,2,13,0.00
2013-5-17,91.5,80.9,72.7,74.5,72.0,70.1,94,76,55,29.84,29.73,12,2,16,0.00
2013-5-18,93.3,83.4,73.5,73.3,71.1,68.1,84,68,49,29.87,29.73,11,4,14,0.00
2013-5-19,89.1,81.6,71.3,71.4,68.7,65.4,85,66,54,29.81,29.63,14,5,16,0.00
2013-5-20,90.2,82.1,75.0,72.4,70.0,67.2,81,67,55,29.80,29.62,14,5,19,0.00
2013-5-21,83.1,72.2,59.5,72.1,65.9,57.2,94,81,63,29.87,29.65,10,3,13,0.51
2013-5-22,86.8,70.9,53.6,63.8,57.8,48.8,98,69,28,29.96,29.83,4,0,6,0.01
2013-5-23,87.7,78.2,69.8,73.9,69.7,62.5,93,76,60,30.05,29.87,8,1,12,0.00
2013-5-24,85.6,78.4,68.2,73.6,70.3,63.9,95,77,61,30.18,29.98,7,1,12,0.14
2013-5-25,84.8,72.9,67.4,71.8,67.9,63.9,95,85,61,30.18,30.02,9,1,12,0.12
2013-5-26,87.2,78.8,71.4,72.6,70.5,68.7,94,77,58,30.07,29.90,10,2,14,0.02
2013-5-27,86.1,79.3,72.7,70.8,68.9,67.2,84,71,58,29.97,29.76,12,4,16,0.00
2013-5-28,85.4,79.8,72.8,69.6,67.9,66.4,83,68,55,29.87,29.69,15,5,18,0.00
2013-5-29,84.8,77.1,71.6,72.9,70.1,67.6,92,79,65,29.81,29.67,12,4,17,0.19
2013-5-30,89.5,81.4,74.4,74.0,71.6,69.6,86,73,58,29.79,29.67,15,5,15,0.00
2013-5-31,90.4,83.4,77.5,74.7,73.0,71.3,84,72,56,29.82,29.66,13,5,17,0.00
2013-6-1,89.0,80.1,75.7,74.5,71.2,68.0,83,75,61,29.95,29.70,14,4,18,0.00
2013-6-2,82.6,74.9,66.0,67.7,57.9,50.8,82,57,35,30.09,29.95,8,1,10,0.00
2013-6-3,90.5,77.2,61.3,62.5,59.3,56.3,86,57,32,30.01,29.83,6,1,8,0.00
2013-6-4,92.4,82.0,72.2,70.5,67.0,60.5,77,61,45,29.99,29.77,11,2,14,0.00
2013-6-5,90.4,82.9,74.6,71.9,69.1,66.4,81,64,48,29.93,29.75,11,1,16,0.00
2013-6-6,81.3,74.0,68.6,71.9,67.6,65.2,93,81,67,29.95,29.80,6,1,11,0.17
2013-6-7,84.8,73.4,60.4,66.2,59.4,53.7,97,66,37,30.03,29.90,5,1,11,0.01
2013-6-8,88.9,77.3,61.4,63.0,60.4,57.5,91,59,38,29.95,29.78,7,1,13,0.00
2013-6-9,86.7,78.6,67.3,70.9,67.8,61.5,96,71,53,29.94,29.80,7,1,14,1.26
2013-6-10,98.9,84.9,68.5,73.5,67.2,57.7,93,60,27,29.96,29.88,5,1,9,0.00
2013-6-11,93.8,86.0,75.6,75.2,70.9,66.7,86,62,48,30.01,29.91,8,2,13,0.00
2013-6-12,94.8,85.6,76.4,74.1,71.3,67.9,87,64,46,30.05,29.91,12,3,12,0.00
2013-6-13,99.0,88.1,74.8,73.1,70.0,67.4,84,57,37,30.05,29.87,5,1,7,0.00
2013-6-14,97.7,87.7,74.8,73.8,70.4,68.1,84,59,40,29.98,29.87,6,0,7,0.00
2013-6-15,91.6,82.9,71.1,75.9,72.3,66.6,94,71,58,30.00,29.87,8,1,17,0.15
2013-6-16,96.3,86.4,74.0,75.5,71.1,67.3,93,63,43,30.01,29.85,6,1,9,0.00
2013-6-17,93.4,82.1,68.4,76.5,72.5,66.2,96,74,53,30.03,29.83,9,1,10,1.14
2013-6-18,85.0,77.6,69.0,73.2,69.9,66.5,95,78,59,30.01,29.88,5,1,7,0.09
2013-6-19,92.7,82.0,70.1,75.8,71.7,68.3,96,73,54,29.99,29.84,6,1,9,0.00
2013-6-20,95.6,86.6,76.4,73.4,70.4,66.6,88,61,41,30.03,29.91,9,2,13,0.00
2013-6-21,95.6,86.7,77.2,74.6,69.7,65.3,80,59,39,30.05,29.93,10,2,14,0.00
2013-6-22,95.9,87.1,76.4,73.4,69.6,66.8,76,57,41,30.02,29.86,10,3,14,0.00
2013-6-23,94.8,87.0,78.2,73.6,69.8,65.3,79,58,39,29.98,29.86,14,3,16,0.00
2013-6-24,95.7,86.9,77.3,72.9,69.3,65.9,81,57,39,30.02,29.86,9,3,13,0.00
2013-6-25,96.6,87.5,78.5,73.5,69.5,64.8,79,57,38,29.98,29.80,12,4,17,0.00
2013-6-26,97.8,88.6,77.8,74.1,70.7,65.4,80,57,44,29.95,29.82,11,3,16,0.00
2013-6-27,102.1,90.3,80.4,76.4,71.1,65.5,75,55,34,30.00,29.84,8,1,10,0.00
2013-6-28,102.3,89.8,78.8,72.4,68.6,65.9,75,52,32,29.94,29.80,7,1,14,0.00
2013-6-29,96.8,86.3,74.3,73.6,66.1,59.1,87,55,29,29.90,29.79,7,1,12,0.00
2013-6-30,90.2,81.9,73.5,69.7,61.4,56.2,84,52,34,29.94,29.81,7,1,14,0.00
2013-7-1,86.5,76.4,67.0,63.5,59.6,56.2,82,58,37,30.04,29.93,8,1,12,0.00
2013-7-2,87.6,77.7,64.2,61.6,56.3,49.5,83,51,27,30.09,30.00,11,1,11,0.00
2013-7-3,91.9,77.9,62.8,63.5,55.0,46.8,86,50,23,30.06,29.94,7,0,8,0.00
2013-7-4,96.2,83.5,71.9,64.9,59.6,49.8,71,47,23,30.00,29.88,8,1,13,0.00
2013-7-5,98.2,85.4,71.9,66.1,62.1,57.7,67,48,30,30.00,29.84,9,1,9,0.00
2013-7-6,97.7,87.0,74.5,69.1,63.0,58.0,67,46,29,29.94,29.84,7,1,11,0.00
2013-7-7,97.5,86.7,75.8,72.0,66.8,61.9,73,53,33,29.99,29.90,6,1,11,0.00
2013-7-8,97.6,85.9,78.0,75.1,71.6,64.0,80,64,40,30.07,29.96,7,2,10,0.00
2013-7-9,100.6,91.1,78.6,73.5,66.6,60.0,79,47,27,30.11,29.94,9,2,13,0.00
2013-7-10,102.9,93.5,82.7,74.0,68.2,63.4,72,46,31,30.04,29.87,7,1,11,0.00
2013-7-11,104.0,89.8,81.0,74.1,70.1,65.1,72,54,32,29.95,29.85,10,1,17,0.00
2013-7-12,101.5,88.0,76.0,73.3,70.8,67.4,85,59,34,29.97,29.85,5,1,8,0.00
2013-7-13,101.6,90.3,80.8,72.0,68.2,60.8,71,50,35,29.99,29.85,8,1,10,0.00
2013-7-14,86.8,74.3,69.3,69.7,65.4,58.8,95,76,44,30.02,29.88,4,0,7,0.35
2013-7-15,73.3,70.5,67.3,71.9,68.6,66.1,97,94,86,30.10,29.97,6,0,7,0.76
2013-7-16,88.4,76.9,69.7,74.3,71.7,68.1,97,85,57,30.23,30.08,7,0,10,1.32
2013-7-17,91.3,78.1,69.5,76.0,71.7,68.0,98,82,53,30.23,30.13,7,0,10,0.27
2013-7-18,95.0,82.6,71.4,74.9,71.4,67.0,97,72,46,30.19,29.99,4,0,7,0.00
2013-7-19,97.9,82.8,74.4,76.8,72.7,67.1,94,74,41,30.05,29.92,11,0,16,0.35
2013-7-20,97.1,82.5,73.9,75.6,71.3,67.8,89,71,40,29.98,29.84,8,0,16,0.00
2013-7-21,97.8,86.2,75.7,76.1,72.4,68.7,87,66,45,29.92,29.82,8,2,11,0.00
2013-7-22,97.8,87.3,77.8,76.6,73.6,70.0,88,66,44,29.96,29.83,9,2,11,0.00
2013-7-23,98.7,90.2,79.7,78.3,73.3,66.8,82,59,44,29.95,29.79,7,2,10,0.00
2013-7-24,98.1,86.1,75.8,74.1,70.1,66.9,82,60,39,30.06,29.84,7,1,14,0.01
2013-7-25,95.3,84.6,74.4,75.8,71.9,69.6,86,67,47,30.05,29.95,5,0,8,0.00
2013-7-26,95.5,84.4,76.4,79.4,73.2,70.7,94,70,49,30.01,29.84,5,1,11,0.21
2013-7-27,89.4,81.6,73.0,71.9,66.8,61.6,83,63,40,30.02,29.90,9,2,11,0.00
2013-7-28,92.2,81.2,69.2,72.2,68.5,65.9,92,67,45,29.99,29.86,7,1,9,0.00
2013-7-29,96.4,86.7,78.4,76.1,72.0,64.1,83,64,40,29.98,29.88,9,2,12,0.00
2013-7-30,98.2,88.6,79.3,74.1,69.9,64.0,79,56,41,30.08,29.92,9,1,14,0.00
2013-7-31,102.5,89.4,80.1,75.2,70.1,65.0,69,54,38,30.04,29.88,6,1,11,0.00
2013-8-1,101.4,91.7,81.2,77.1,73.7,67.5,84,58,35,29.99,29.86,5,0,9,0.00
2013-8-2,104.0,91.2,80.2,72.8,69.7,65.7,75,52,32,29.92,29.83,7,1,14,0.00
2013-8-3,101.4,91.0,81.5,72.3,68.7,64.6,68,49,32,29.99,29.89,8,1,10,0.00
2013-8-4,100.4,90.3,81.4,74.1,70.6,65.8,74,54,36,30.05,29.90,7,1,8,0.00
2013-8-5,103.7,92.6,82.0,72.2,68.7,62.4,71,48,31,29.99,29.81,6,0,9,0.00
2013-8-6,104.0,92.6,80.8,72.8,67.7,61.5,72,46,29,29.89,29.76,8,1,12,0.00
2013-8-7,106.1,93.6,81.5,73.3,68.9,63.6,70,47,29,29.87,29.73,10,1,14,0.00
2013-8-8,102.2,92.2,81.9,75.8,69.7,63.5,74,50,32,29.87,29.74,7,1,13,0.00
2013-8-9,103.4,86.8,73.8,75.7,69.1,63.8,96,59,30,29.95,29.80,18,0,18,0.67
2013-8-10,96.4,83.7,75.7,76.4,72.9,68.2,93,72,42,30.06,29.93,8,0,10,0.00
2013-8-11,102.5,88.4,76.4,75.8,70.4,65.0,82,58,32,30.06,29.92,4,0,9,0.00
2013-8-12,100.3,90.9,79.7,74.2,70.2,66.7,75,52,38,30.03,29.89,4,0,5,0.00
2013-8-13,100.3,87.0,76.7,77.8,71.0,67.1,85,60,40,30.00,29.86,7,0,11,0.20
2013-8-14,90.1,81.4,77.0,75.8,73.3,69.5,89,77,59,30.03,29.93,3,0,8,0.00
2013-8-15,88.8,79.8,72.7,69.6,66.0,62.3,81,64,49,30.07,29.94,6,0,8,0.00
2013-8-16,88.4,79.6,67.6,68.6,65.1,62.0,93,63,47,30.07,29.96,10,1,15,0.08
2013-8-17,89.3,78.5,66.7,62.7,60.4,58.2,78,56,37,30.11,29.97,9,1,11,0.00
2013-8-18,91.5,77.5,66.5,67.7,63.2,59.9,86,64,37,30.11,29.98,5,0,8,0.00
2013-8-19,95.4,81.8,70.5,69.1,63.2,59.3,78,56,32,30.07,29.92,4,0,9,0.00
2013-8-20,97.0,83.8,71.5,67.3,61.7,56.2,77,50,28,30.04,29.93,4,0,8,0.00
2013-8-21,96.6,85.6,74.2,71.1,66.3,61.3,76,54,37,30.08,29.96,7,1,11,0.00
2013-8-22,99.5,88.7,76.6,73.2,68.5,65.8,77,53,35,30.08,29.91,6,0,8,0.00
2013-8-23,100.9,88.0,79.0,74.6,69.8,64.4,77,57,31,30.02,29.87,6,0,8,0.00
2013-8-24,99.8,88.4,78.5,73.6,69.0,64.9,74,54,33,30.05,29.94,7,1,10,0.00
2013-8-25,97.5,89.7,77.5,72.2,68.2,65.0,75,51,36,30.14,29.94,8,1,12,0.00
2013-8-26,97.2,87.2,77.5,71.3,67.6,60.8,77,54,33,30.16,30.03,7,1,11,0.00
2013-8-27,95.0,82.9,74.8,72.3,69.8,63.8,85,67,38,30.12,30.01,8,1,11,0.00
2013-8-28,99.3,83.9,73.1,73.2,67.7,63.7,84,61,34,30.10,29.97,5,0,8,0.00
2013-8-29,103.1,88.3,73.7,72.3,67.5,62.9,83,54,28,30.07,29.93,3,0,7,0.00
2013-8-30,104.9,89.4,77.4,71.9,66.7,62.2,70,50,27,30.00,29.85,5,0,6,0.00
2013-8-31,106.8,92.2,79.5,71.3,65.8,60.7,66,44,25,29.89,29.76,7,0,8,0.00
2013-9-1,105.5,93.1,81.5,71.7,67.4,62.4,64,45,27,29.86,29.74,11,0,11,0.00
2013-9-2,90.5,81.6,73.6,77.2,73.3,68.6,96,78,50,30.01,29.83,6,0,9,0.35
2013-9-3,98.2,85.3,74.6,75.4,66.6,58.2,85,56,31,30.00,29.87,7,0,8,0.00
2013-9-4,100.5,87.1,72.8,73.6,67.6,60.5,87,55,33,30.04,29.93,4,0,7,0.00
2013-9-5,98.6,87.9,76.5,74.8,68.2,59.9,80,55,29,30.10,29.97,4,0,7,0.00
2013-9-6,102.5,89.3,75.4,73.0,66.0,61.2,73,48,29,30.08,29.92,4,0,6,0.00
2013-9-7,100.3,88.8,79.0,73.8,67.3,60.5,74,51,29,30.03,29.89,5,0,9,0.00
2013-9-8,97.6,85.5,71.7,73.3,67.3,62.5,87,57,34,29.98,29.85,7,1,8,0.00
2013-9-9,95.5,86.0,72.4,72.7,67.6,63.5,86,56,39,30.00,29.89,7,1,11,0.00
2013-9-10,94.9,83.6,75.9,73.2,66.9,56.6,83,60,32,30.09,29.95,7,1,11,0.00
2013-9-11,97.8,83.8,71.8,73.0,68.3,63.6,89,62,39,30.13,29.99,8,1,10,0.00
2013-9-12,97.7,86.9,74.1,71.9,68.2,65.8,82,56,36,30.07,29.91,4,0,7,0.00
2013-9-13,97.8,85.4,77.2,72.7,69.3,65.4,77,60,38,29.97,29.82,4,0,11,0.00
2013-9-14,93.6,84.1,75.8,69.0,64.8,61.1,65,53,39,29.98,29.86,8,1,11,0.00
2013-9-15,95.6,85.2,75.2,71.3,65.2,60.2,61,52,42,30.03,29.93,6,1,8,0.00
2013-9-16,97.7,86.3,75.0,73.0,66.8,61.8,74,54,32,30.09,29.94,5,0,9,0.00
2013-9-17,93.2,85.4,76.9,71.4,67.5,64.7,73,56,41,30.06,29.93,7,0,8,0.00
2013-9-18,97.5,86.7,76.4,72.7,67.1,61.3,76,54,33,30.01,29.85,7,1,11,0.00
2013-9-19,90.5,83.3,70.8,73.0,69.7,64.2,96,65,48,29.99,29.86,6,1,12,1.57
2013-9-20,74.1,72.1,68.9,71.9,70.4,63.5,97,94,83,29.94,29.85,7,0,13,0.94
2013-9-21,82.7,71.1,61.1,65.4,54.9,47.2,85,61,31,30.01,29.87,9,1,12,0.00
2013-9-22,84.3,70.4,54.9,57.9,54.3,51.3,95,61,34,29.96,29.81,4,0,8,0.00
2013-9-23,86.9,72.7,59.6,60.0,55.5,52.3,80,57,34,29.88,29.75,6,0,11,0.00
2013-9-24,92.4,74.5,63.6,70.0,60.2,48.2,94,66,23,29.94,29.83,4,0,11,0.00
2013-9-25,95.3,78.4,57.7,63.0,55.3,49.3,94,51,22,29.92,29.77,3,0,5,0.00
2013-9-26,95.6,80.5,67.5,63.8,57.5,52.2,66,47,28,29.88,29.79,7,1,12,0.00
2013-9-27,88.7,80.7,70.9,72.6,67.4,60.2,77,64,51,29.93,29.82,7,1,12,0.00
2013-9-28,86.0,76.2,67.4,75.7,70.1,62.0,95,82,68,30.06,29.86,8,1,11,0.58
2013-9-29,80.7,70.4,62.2,62.7,57.4,48.6,87,66,35,30.08,29.92,7,1,10,0.00
2013-9-30,87.9,69.7,55.7,62.8,56.6,50.3,95,68,28,29.95,29.81,4,0,7,0.00
2013-10-1,90.5,76.6,64.3,72.3,66.9,62.0,96,74,40,29.95,29.84,9,0,12,0.00
2013-10-2,89.2,80.0,74.0,72.4,70.9,69.3,91,75,54,29.98,29.85,10,1,12,0.00
2013-10-3,91.1,80.3,74.9,73.6,70.9,68.5,88,74,49,29.93,29.79,9,2,12,0.00
2013-10-4,88.9,81.1,74.1,72.1,70.0,67.9,88,70,51,29.92,29.81,13,2,15,0.00
2013-10-5,81.1,66.5,50.8,70.2,59.5,44.6,96,79,59,30.13,29.85,11,1,12,0.22
2013-10-6,76.1,60.2,46.4,51.1,42.7,32.9,98,61,21,30.16,30.05,5,0,5,0.00
2013-10-7,81.1,59.2,46.1,53.4,45.6,37.7,94,67,22,30.19,30.08,5,0,8,0.00
2013-10-8,82.5,63.6,48.2,53.5,48.1,45.7,93,62,28,30.14,30.00,5,0,8,0.00
2013-10-9,84.0,68.1,56.0,59.0,54.6,51.8,89,64,34,30.09,29.98,5,1,10,0.00
2013-10-10,84.5,73.7,60.4,64.5,60.0,56.0,86,64,45,30.07,29.88,7,1,13,0.00
2013-10-11,85.7,76.9,70.2,71.3,67.6,61.0,85,74,61,29.94,29.81,10,2,13,0.00
2013-10-12,92.8,79.9,71.8,76.2,71.6,66.7,92,77,50,30.07,29.87,6,0,11,0.02
2013-10-13,75.7,71.3,67.1,70.0,67.7,65.4,96,89,79,30.21,30.06,4,0,8,0.00
2013-10-14,73.3,70.9,68.6,72.1,69.1,67.0,97,94,86,30.16,29.93,6,0,10,0.84
2013-10-15,77.2,65.8,53.2,73.2,63.5,51.8,96,92,82,30.10,29.91,8,1,13,0.64
2013-10-16,65.0,58.2,52.8,53.2,49.9,46.4,96,76,56,30.14,30.04,7,1,13,0.25
2013-10-17,73.9,57.7,43.5,51.3,46.7,41.9,95,70,36,30.17,30.01,4,0,4,0.00
2013-10-18,68.8,58.6,49.7,58.1,52.1,47.1,96,80,55,30.14,29.92,8,0,9,0.01
2013-10-19,68.8,51.8,41.4,50.2,41.7,36.7,87,71,35,30.26,30.10,5,0,9,0.00
2013-10-20,72.9,57.0,41.9,47.4,43.8,40.6,96,66,34,30.12,29.90,9,1,12,0.00
2013-10-21,76.7,58.8,51.1,62.3,51.5,46.4,87,77,58,30.15,29.92,8,1,11,0.00
2013-10-22,77.4,54.9,40.3,49.5,45.1,38.5,95,74,33,30.21,30.05,3,0,5,0.00
2013-10-23,84.0,61.1,46.4,53.9,49.7,45.0,96,71,29,30.16,30.04,4,0,6,0.00
2013-10-24,78.4,64.9,50.4,57.0,50.7,43.2,90,62,41,30.31,30.08,6,0,9,0.00
2013-10-25,68.7,59.1,51.2,48.9,45.3,42.0,79,61,47,30.43,30.27,6,1,8,0.00
2013-10-26,76.6,62.4,55.7,64.4,54.9,47.1,95,77,65,30.27,30.03,8,1,13,0.74
2013-10-27,67.2,61.1,55.9,59.4,57.9,54.4,96,90,73,30.16,30.03,2,0,3,0.01
2013-10-28,76.1,65.6,52.7,67.9,61.7,51.9,98,88,73,30.13,30.01,6,0,9,0.00
2013-10-29,76.3,72.6,69.9,70.1,68.1,66.2,89,86,80,30.09,29.99,7,1,12,0.00
2013-10-30,72.8,69.8,65.8,69.1,67.1,64.0,95,91,86,30.03,29.80,10,1,16,0.09
2013-10-31,75.1,67.4,51.4,68.9,56.0,43.5,97,71,33,29.89,29.69,12,0,12,0.01
2013-11-1,76.8,61.3,46.6,52.7,48.4,45.5,98,67,38,30.12,29.84,7,0,10,0.00
2013-11-2,67.0,55.6,44.7,46.1,40.5,34.0,86,60,30,30.33,30.10,8,1,12,0.00
2013-11-3,67.5,54.7,0.0,47.7,41.9,0.0,93,65,37,30.26,30.01,8,1,13,0.00
2013-11-4,60.2,57.9,55.5,59.3,53.3,47.5,97,85,67,30.13,30.01,7,1,10,0.59
2013-11-5,69.9,65.3,60.1,67.8,63.8,59.0,97,95,88,30.08,29.95,8,1,9,0.36
2013-11-6,70.6,55.5,41.3,68.2,49.8,38.9,94,82,57,30.40,29.97,6,1,11,0.31
2013-11-7,62.7,48.0,35.3,44.9,39.7,34.2,97,77,38,30.56,30.40,6,0,7,0.00
2013-11-8,66.3,54.3,40.3,46.5,42.8,39.2,97,68,39,30.43,30.16,6,1,8,0.00
2013-11-9,70.6,60.9,55.3,55.1,49.5,44.9,73,66,56,30.25,30.13,7,1,12,0.00
2013-11-10,64.1,56.8,47.8,52.2,48.8,46.4,96,75,62,30.37,30.24,2,0,4,0.00
2013-11-11,74.9,57.9,43.9,56.0,50.8,43.1,98,80,50,30.32,30.19,3,0,4,0.00
2013-11-12,61.9,48.4,35.7,57.3,34.2,19.9,91,60,30,30.74,30.31,14,3,17,0.00
2013-11-13,53.7,39.8,27.2,29.9,25.4,21.0,87,59,32,30.74,30.42,3,0,6,0.00
2013-11-14,60.5,47.1,30.0,46.9,33.0,27.3,91,62,29,30.42,30.05,8,1,10,0.00
2013-11-15,73.0,61.5,51.6,58.0,53.1,46.6,91,75,50,30.05,29.85,7,1,9,0.00
2013-11-16,78.4,69.6,60.9,69.4,63.3,57.9,91,81,64,29.88,29.67,11,2,19,0.00
2013-11-17,87.0,74.3,60.2,69.2,57.8,36.0,92,61,30,30.03,29.70,9,1,12,0.00
2013-11-18,72.0,63.0,54.1,38.0,33.2,29.1,49,34,21,30.21,30.03,6,1,8,0.00
2013-11-19,68.8,60.2,55.5,40.9,36.2,32.5,52,41,27,30.21,30.04,7,1,11,0.00
2013-11-20,65.1,57.4,47.9,55.3,43.5,35.1,82,60,46,30.06,29.91,7,1,13,0.00
2013-11-21,74.4,63.5,40.4,69.4,60.3,38.0,95,89,75,30.27,29.97,7,1,10,0.11
2013-11-22,40.9,36.3,34.3,38.6,33.7,31.6,94,90,84,30.52,30.26,11,3,17,0.66
2013-11-23,42.5,37.7,35.3,36.2,33.0,25.7,95,83,64,30.61,30.50,11,2,14,0.01
2013-11-24,35.7,33.6,32.1,28.0,25.1,20.8,78,71,61,30.66,30.40,7,2,12,0.01
2013-11-25,37.3,34.8,31.7,34.4,32.3,26.3,95,90,73,30.41,30.21,6,0,10,0.53
2013-11-26,51.9,42.1,35.6,36.8,31.7,25.2,91,69,44,30.44,30.20,8,2,15,0.00
2013-11-27,45.4,35.4,27.3,26.1,20.8,15.2,87,57,34,30.53,30.40,8,1,11,0.00
2013-11-28,54.9,37.9,26.6,30.9,26.6,22.5,87,67,30,30.50,30.40,5,0,8,0.00
2013-11-29,59.0,45.7,25.6,41.6,34.9,24.1,96,68,44,30.57,30.39,6,1,8,0.00
2013-11-30,66.8,53.0,39.6,52.8,45.2,35.6,88,76,58,30.39,30.17,8,1,14,0.00
2013-12-1,70.6,58.7,50.8,58.7,54.1,49.4,97,85,65,30.20,29.93,7,0,11,0.00
2013-12-2,70.6,53.0,38.3,53.1,46.7,37.5,98,82,50,29.93,29.69,4,0,5,0.00
2013-12-3,76.3,58.0,41.4,50.7,43.2,39.1,98,63,27,29.71,29.52,3,0,5,0.00
2013-12-4,78.6,59.2,46.6,52.2,45.6,35.3,88,63,38,29.91,29.57,7,1,12,0.00
2013-12-5,46.7,34.0,28.6,35.2,25.8,20.2,94,73,56,30.21,29.91,12,3,13,0.00
2013-12-6,31.3,26.4,22.7,29.5,23.7,18.3,95,90,83,30.57,30.15,4,1,7,0.00
2013-12-7,25.3,22.6,19.1,22.8,18.9,14.5,91,85,81,30.59,30.31,5,1,7,0.00
2013-12-8,32.6,29.1,25.1,29.9,26.8,22.3,95,91,88,30.32,30.08,3,0,6,0.00
2013-12-9,32.6,31.2,28.0,29.3,26.6,20.2,95,83,71,30.46,30.20,6,1,11,0.00
2013-12-10,38.3,27.1,17.9,24.2,19.4,13.6,94,74,49,30.57,30.38,5,0,9,0.28
2013-12-11,43.1,32.6,22.7,32.2,26.5,20.9,94,79,60,30.63,30.35,4,0,6,0.00
2013-12-12,48.9,36.0,24.3,34.7,28.6,21.5,92,75,52,30.65,30.33,4,0,4,0.00
2013-12-13,46.5,43.3,40.6,45.2,38.2,31.6,96,83,67,30.33,29.81,8,1,9,0.03
2013-12-14,46.3,40.5,27.5,45.0,35.6,25.0,97,83,65,30.36,29.79,7,1,10,0.00
2013-12-15,62.1,41.3,24.3,36.5,30.4,23.1,96,70,32,30.38,30.24,3,0,5,0.00
2013-12-16,67.6,49.5,31.8,39.3,35.3,29.4,93,61,32,30.25,30.15,3,0,6,0.00
2013-12-17,70.1,48.6,33.1,43.0,37.5,31.0,94,69,36,30.30,30.20,2,0,4,0.00
2013-12-18,70.5,52.6,32.7,49.1,41.2,31.4,97,69,36,30.27,29.99,9,1,10,0.00
2013-12-19,71.4,63.0,54.3,62.0,55.5,48.1,88,77,63,29.99,29.73,14,3,17,0.00
2013-12-20,67.5,54.1,34.1,62.8,50.7,32.6,95,89,70,29.85,29.74,9,1,13,0.00
2013-12-21,52.5,42.1,34.0,51.5,41.0,32.2,98,96,92,29.81,29.55,7,0,9,1.48
2013-12-22,42.4,36.4,30.0,41.4,30.2,25.2,97,79,60,30.43,29.81,6,1,14,0.00
2013-12-23,46.3,33.4,21.6,30.6,26.8,20.1,96,78,51,30.59,30.42,3,0,5,0.00
2013-12-24,52.7,38.0,22.8,35.6,29.3,20.8,94,73,49,30.59,30.27,8,1,11,0.00
2013-12-25,58.2,44.2,35.0,43.7,35.4,30.8,89,72,49,30.44,30.28,5,1,9,0.00
2013-12-26,53.9,37.5,26.1,36.9,31.5,24.9,96,81,49,30.48,30.35,5,0,7,0.00
2013-12-27,59.2,41.3,28.0,41.1,33.9,26.8,97,78,43,30.48,30.35,4,0,5,0.00
2013-12-28,61.6,47.2,32.1,44.5,37.8,30.8,97,73,46,30.35,29.98,5,0,8,0.00
2013-12-29,49.2,38.5,31.0,42.3,32.7,23.7,93,79,67,30.33,29.95,7,1,11,0.00
2013-12-30,43.2,33.1,26.3,23.8,21.0,17.7,87,62,42,30.45,30.29,5,0,6,0.00
2013-12-31,54.9,38.5,22.6,30.0,25.8,20.0,92,64,35,30.47,30.22,4,0,8,0.00
2014-1-1,68.5,48.5,32.9,48.3,36.1,23.9,85,64,44,30.25,29.87,9,1,15,0.00
2014-1-2,42.0,31.0,23.8,23.9,19.5,16.2,85,64,40,30.52,30.25,11,1,12,0.00